Regional Weather Roundup
Issued by NWS Charleston, SC

Current Version | Previous Version | Text Only | Print | Product List | Glossary Off
Versions: 1 2 3 4 5 6 7 8 9 10 11 12 13 14 15 16 17 18 19 20 21 22 23 24 25 26 27 28 29 30 31 32 33 34 35 36 37 38 39 40 41 42 43 44 45 46 47 48 49 50
000 ASUS42 KCHS 240012 RWRCHS REGIONAL WEATHER ROUNDUP NATIONAL WEATHER SERVICE CHARLESTON SC 800 PM EDT SUN APR 23 2017 NOTE: "FAIR" INDICATES FEW OR NO CLOUDS BELOW 12,000 FEET WITH NO SIGNIFICANT WEATHER AND/OR OBSTRUCTIONS TO VISIBILITY. NOT ALL STATIONS ARE QUALITY CONTROLLED. USE DATA WITH CAUTION... ESPECIALLY DEWPOINT OBSERVATIONS. SCZ027-030-031-034>040-042>050-240100- ...SOUTHEAST SOUTH CAROLINA... CITY SKY/WX TMP DP RH WIND PRES REMARKS N CHARLESTON MOCLDY 75 66 73 SE14 29.79R 6HR MIN TEMP: 74; 6HR MAX TEMP: 84; WATERFRONT PRK N/A 75 72 90 SE9 29.77R JOHNS ISLAND FAIR 75 70 83 SE10 29.79S PINOPOLIS N/A 75 70 83 SE5G14 29.71R MONCKS CORNER MOCLDY 73 66 78 SE6 29.79R SUMMERVILLE FAIR 75 66 73 SE9 29.79R BEAUFORT MCAS CLOUDY 77 70 79 SE9 29.77R 6HR MIN TEMP: 77; 6HR MAX TEMP: 85; BEAUFORT ARPT FAIR 73 68 83 S8 29.77R HAZE HILTON HEAD IS PTCLDY 75 72 88 S7 29.78R WALTERBORO CLOUDY 73 64 73 SE9 29.77S ALLENDALE MOCLDY 77 66 69 SE9 29.72S HAZE ...SOUTHERN MIDLANDS AND PEE DEE... CITY SKY/WX TMP DP RH WIND PRES REMARKS GEORGETOWN FAIR 70 68 94 E9 29.83F KINGSTREE CLOUDY 70 63 78 E10 29.82R ORANGEBURG MOCLDY 67 66 97 NE8 29.77S 6HR MIN TEMP: 67; 6HR MAX TEMP: 87; 6HR PCP: 0.23; BARNWELL MOCLDY 70 68 94 NE10 29.73F AIKEN LGT RAIN 63 59 88 NE10G16 29.79S MANNING CLOUDY 68 64 88 NE5G17 29.79S COLUMBIA LGT RAIN 63 60 90 NE8 29.78S 6HR MIN TEMP: 63; 6HR MAX TEMP: 72; 6HR PCP: 0.05; SUMTER CLOUDY 61 60 95 E15G21 29.79R FOG 6HR MIN TEMP: 61; 6HR MAX TEMP: 74; 6HR PCP: 0.27; FLORENCE CLOUDY 61 60 97 E14 29.85F 6HR MIN TEMP: 61; 6HR MAX TEMP: 66; 6HR PCP: 0.02; MYRTLE BEACH LGT RAIN 66 64 94 E16 29.86S N MYRTLE BEACH CLOUDY 67 64 90 E10 29.86S 6HR MIN TEMP: 67; 6HR MAX TEMP: 72; 6HR PCP: 0.01; $$ GAZ063-065-086>088-099>101-113>116-118-119-134>141-150-240100- ...SOUTHEAST GEORGIA... CITY SKY/WX TMP DP RH WIND PRES REMARKS SAVANNAH ARPT CLOUDY 77 64 64 SE17 29.74S 6HR MIN TEMP: 77; 6HR MAX TEMP: 88; HUNTER AAF PTCLDY 75 72 90 SE13 29.73S 6HR MIN TEMP: 75; 6HR MAX TEMP: 84; FORT STEWART CLOUDY 76 63 62 SE8 29.72R 6HR MIN TEMP: 76; 6HR MAX TEMP: 88; STATESBORO PTCLDY 76 66 70 S6 29.72S SYLVANIA DRIZZLE 75 68 78 CALM 29.73S CLAXTON LGT RAIN 77 68 72 SE7 29.73R ...CSRA...CENTRAL AND FAR SOUTHEAST GEORGIA... CITY SKY/WX TMP DP RH WIND PRES REMARKS THOMSON RAIN 62 60 96 NW6 29.84R FOG AUGUSTA-BUSH LGT RAIN 69 65 86 N9 29.73S 6HR MIN TEMP: 69; 6HR MAX TEMP: 88; 6HR PCP: 0.03; AUGUSTA-DANIEL LGT RAIN 68 60 75 N8 29.76S SWAINSBORO CLOUDY 79 61 53 W3 29.72R VIDALIA CLOUDY 81 61 50 SW6 29.71R EASTMAN TSTM 68 68 100 W5 29.79R HAZLEHURST MOCLDY 80 65 60 CALM 29.71R ALMA PTCLDY 80 62 54 SW5 29.71R 6HR MIN TEMP: 80; 6HR MAX TEMP: 88; WAYCROSS CLEAR 83 67 56 SW9 29.72R JESUP FAIR 77 63 61 S7 29.74R BAXLEY FAIR 81 66 61 CALM 29.71R BRUNSWICK LGT RAIN 77 72 83 SE15G21 29.76R SAINT SIMONS CLOUDY 75 70 84 SE13G21 29.75S 6HR MIN TEMP: 74; 6HR MAX TEMP: 82; 6HR PCP: TRACE; $$ SCZ027-028-034-036>038-045-046-048>050-GAZ119-141-240100- ...LAKE AND SUPPLEMENTAL COASTAL OBSERVATIONS... STATION/POSITION TIME TEMP WIND PRES WAVE SWELL AIR SEA DIR/SP/G HT/PER HT/PER/DIR (UTC) (F) (DEG/KT/KT) (MB) (FT/S) (FT/S/D) WINYAH BAY 2245 71 80/ 15 1010.0 LAKE MURRAY 2320 62 50/ 5/ 8 1008.5F ACE BASIN NERRS NOT AVBL FORT PULASKI 2348 75 75 160/ 8/ 13 1008.1R SAPELO ISLAND 2300 77 150/ 9 1007.0 $$ ANZ835-935-AMZ111-154-330-350-352-354-370-450-454-472-240100- ...C-MAN AND BUOY OBSERVATIONS... STATION/POSITION TIME TEMP WIND PRES WAVE SWELL AIR SEA DIR/SP/G HT/PER HT/PER/DIR (UTC) (F) (DEG/KT/KT) (MB) (FT/S) (FT/S/D) BUOY 41004 2350 75 75 150/ 16/ 19 1009.1S 4/ 5 2/120/12 BUOY 41008 2250 74 73 150/ 16/ 17 1006.8 3/13 2/ 90/13 FOLLY BEACH CMAN 2300 75 150/ 11/ 13 1009.4F CAPERS NEARSHORE 2308 75 74 150/ 12/ 17 1008.8R FRIPP NEARSHORE 2308 74 74 160/ 12/ 16 1007.7S STATION/POSITION TIME TEMP WIND PRES WAVE SWELL AIR SEA DIR/SP/G HT/PER HT/PER/DIR (UTC) (F) (DEG/KT/KT) (MB) (FT/S) (FT/S/D) 5E ST. MARYS GA 2330 72 N/A 4/ 4 2/ 80/13 FRYING PAN BUOY 2350 75 74 160/ 10/ 12 1010.9S 4/ 5 3/ 60/ 5 BUOY 41025 2350 70 76 40/ 19/ 23 1012.7F 8/11 3/ 60/11 CAPE LOOKOUT NC 0000 63 30/ 22/ 24 1013.0S BUOY 41002 2250 73 75 150/ 14/ 16 1013.2 4/12 3/ 30/12 BUOY 41010 2350 74 79 130/ 21/ 25 1009.0F 7/ 7 3/ 50/12 ST AUGUSTINE FL 0000 74 77 160/ 18/ 20 1008.7R $$

USA.gov is the U.S. government's official web portal to all federal, state and local government web resources and services.